FW7227 Weather Reports


time (UTC)temp
C
wind
direction
speed
KPH
gust
KPH
rain 1hr
cm
rain 24hr
cm
rain mn
cm
humidity
%
barometer
mb
20260504045557 13 229 3.2 11.3 0.00 0.00 0.00 75 1012.3
20260504045055 13 234 4.8 11.3 0.00 0.00 0.00 75 1012.2
20260504044557 13 230 3.2 9.7 0.00 0.00 0.00 75 1012.1
20260504044055 13 360 3.2 8.0 0.00 0.00 0.00 75 1012.1
20260504043555 13 360 3.2 8.0 0.00 0.00 0.00 75 1012.0
20260504043100 12 360 3.2 6.4 0.00 0.00 0.00 75 1011.9
20260504042555 12 360 1.6 6.4 0.00 0.00 0.00 75 1011.9
20260504042056 12 0 1.6 9.7 0.00 0.00 0.00 75 1011.9
20260504041555 12 219 3.2 12.9 0.00 0.00 0.00 75 1011.9
20260504041057 12 360 4.8 12.9 0.00 0.00 0.00 76 1011.8
20260504040557 12 360 4.8 12.9 0.00 0.00 0.00 76 1012.0
20260504040137 12 360 3.2 9.7 0.00 0.00 0.00 76 1011.8
20260504035557 12 360 3.2 9.7 0.00 0.00 0.00 76 1011.8
20260504035100 12 360 3.2 8.0 0.00 0.00 0.00 75 1011.8
20260504034604 12 360 1.6 6.4 0.00 0.00 0.00 75 1011.9
20260504034058 12 360 0.0 6.4 0.00 0.00 0.00 75 1011.9
20260504033558 12 360 1.6 9.7 0.00 0.00 0.00 75 1011.9
20260504033058 12 360 3.2 9.7 0.00 0.00 0.00 75 1011.9
20260504032557 12 360 4.8 12.9 0.00 0.00 0.00 75 1011.7
20260504032102 12 360 4.8 12.9 0.00 0.00 0.00 75 1011.8
20260504031621 12 360 6.4 12.9 0.00 0.00 0.00 75 1011.8
20260504031057 12 360 4.8 9.7 0.00 0.00 0.00 75 1011.8
20260504030557 12 360 4.8 12.9 0.00 0.00 0.00 75 1011.8
20260504030057 12 360 4.8 12.9 0.00 0.00 0.00 75 1011.8
20260504025557 12 360 6.4 12.9 0.00 0.00 0.00 74 1011.8
20260504025058 12 360 6.4 12.9 0.00 0.00 0.00 73 1011.8
20260504024603 12 360 4.8 9.7 0.00 0.00 0.00 73 1011.8
20260504024057 13 360 4.8 8.0 0.00 0.00 0.00 72 1011.7
20260504023557 13 360 3.2 8.0 0.00 0.00 0.00 71 1011.7
20260504023055 13 360 3.2 8.0 0.00 0.00 0.00 71 1011.7
20260504022557 13 360 3.2 8.0 0.00 0.00 0.00 70 1011.7
20260504022057 13 360 4.8 9.7 0.00 0.00 0.00 70 1011.7
20260504021628 13 360 4.8 9.7 0.00 0.00 0.00 70 1011.7
20260504021557 13 360 4.8 9.7 0.00 0.00 0.00 70 1011.7
20260504021056 13 360 4.8 8.0 0.00 0.00 0.00 69 1011.7
20260504020600 13 360 3.2 6.4 0.00 0.00 0.00 69 1011.7
20260504020112 13 236 4.8 8.0 0.00 0.00 0.00 69 1011.6
20260504015559 13 360 4.8 8.0 0.00 0.00 0.00 69 1011.7
20260504015058 14 360 4.8 8.0 0.00 0.00 0.00 69 1011.6
20260504014556 14 360 4.8 9.7 0.00 0.00 0.00 69 1011.6
20260504014054 14 360 4.8 9.7 0.00 0.00 0.00 69 1011.6
20260504013557 14 232 4.8 12.9 0.00 0.00 0.00 69 1011.6
20260504013058 14 360 4.8 12.9 0.00 0.00 0.00 69 1011.7
20260504012557 14 360 4.8 9.7 0.00 0.00 0.00 68 1011.9
20260504012057 15 360 3.2 6.4 0.00 0.00 0.00 68 1011.9
20260504011556 15 360 1.6 12.9 0.00 0.00 0.00 68 1011.8
20260504011058 15 360 1.6 12.9 0.00 0.00 0.00 68 1011.7
20260504010556 15 246 4.8 12.9 0.00 0.00 0.00 68 1011.6
20260504010058 15 360 6.4 12.9 0.00 0.00 0.00 68 1011.6
20260504005557 15 230 3.2 12.9 0.00 0.00 0.00 68 1011.5
20260504005057 15 231 3.2 12.9 0.00 0.00 0.00 67 1011.5
20260504004600 15 360 3.2 8.0 0.00 0.00 0.00 67 1011.5
20260504004058 15 221 3.2 8.0 0.00 0.00 0.00 67 1011.5
20260504003557 15 219 1.6 8.0 0.00 0.00 0.00 67 1011.5
20260504003100 15 360 3.2 9.7 0.00 0.00 0.00 67 1011.5
20260504002557 15 360 4.8 9.7 0.00 0.00 0.00 67 1011.5
20260504002057 15 360 4.8 12.9 0.00 0.00 0.00 66 1011.4
20260504001603 15 360 4.8 12.9 0.00 0.00 0.00 66 1011.4
20260504001057 16 360 1.6 6.4 0.00 0.00 0.00 66 1011.4
20260504000557 16 0 0.0 4.8 0.00 0.00 0.00 66 1011.4
20260504000056 16 360 1.6 6.4 0.00 0.00 0.00 66 1011.5
20260503235558 16 245 3.2 11.3 0.00 0.00 0.00 66 1011.5
20260503235100 16 242 4.8 12.9 0.00 0.00 0.00 66 1011.5
20260503234628 16 240 3.2 14.5 0.00 0.00 0.00 66 1011.5
20260503234100 16 234 6.4 14.5 0.00 0.00 0.00 66 1011.4
20260503233557 16 360 4.8 14.5 0.00 0.00 0.00 65 1011.4
20260503233100 16 360 4.8 12.9 0.00 0.00 0.00 65 1011.4
20260503232557 16 360 4.8 11.3 0.00 0.00 0.00 65 1011.3
20260503232057 16 360 4.8 12.9 0.00 0.00 0.00 65 1011.3
20260503231558 16 360 3.2 12.9 0.00 0.00 0.00 64 1011.3
20260503231057 16 360 4.8 12.9 0.00 0.00 0.00 63 1011.4
20260503230600 16 360 3.2 6.4 0.00 0.00 0.00 63 1011.5
20260503230058 16 0 1.6 6.4 0.00 0.00 0.00 63 1011.6
20260503225557 16 0 0.0 3.2 0.00 0.00 0.00 61 1011.7
20260503225058 16 0 0.0 6.4 0.00 0.00 0.00 61 1011.7
20260503224557 16 0 0.0 6.4 0.00 0.00 0.00 61 1011.6
20260503224058 16 360 3.2 6.4 0.00 0.00 0.00 61 1011.7
20260503223557 16 225 3.2 6.4 0.00 0.00 0.00 61 1011.8
20260503223056 16 228 3.2 8.0 0.00 0.00 0.00 61 1011.8
20260503222558 17 360 3.2 8.0 0.00 0.00 0.00 60 1011.8
20260503222057 17 360 3.2 6.4 0.00 0.00 0.00 59 1011.7
20260503221610 17 360 0.0 4.8 0.00 0.00 0.00 58 1011.6
20260503221057 17 279 0.0 9.7 0.00 0.00 0.00 58 1011.6
20260503220558 17 0 1.6 9.7 0.00 0.00 0.00 57 1011.5
20260503220057 17 262 1.6 9.7 0.00 0.00 0.00 57 1011.5
20260503215557 17 263 1.6 9.7 0.00 0.00 0.00 57 1011.5
20260503215056 17 238 3.2 12.9 0.00 0.00 0.00 56 1011.6
20260503214557 17 246 4.8 12.9 0.00 0.00 0.00 55 1011.5
20260503214057 17 248 6.4 12.9 0.00 0.00 0.00 55 1011.5
20260503213557 17 246 4.8 11.3 0.00 0.00 0.00 54 1011.5
20260503213057 17 275 3.2 14.5 0.00 0.00 0.00 54 1011.4
20260503212557 17 274 8.0 16.1 0.00 0.00 0.00 54 1011.4
20260503212058 17 264 6.4 17.7 0.00 0.00 0.00 53 1011.4
20260503211556 17 288 8.0 17.7 0.00 0.00 0.00 53 1011.4
20260503211057 18 273 8.0 17.7 0.00 0.00 0.00 53 1011.4
20260503210557 18 280 8.0 19.3 0.00 0.00 0.00 53 1011.3
20260503210100 18 268 9.7 19.3 0.00 0.00 0.00 53 1011.2
20260503205559 18 287 9.7 19.3 0.00 0.00 0.00 53 1011.2
20260503205058 18 263 9.7 17.7 0.00 0.00 0.00 52 1011.2
20260503204558 18 266 6.4 16.1 0.00 0.00 0.00 52 1011.2
20260503204056 18 279 8.0 16.1 0.00 0.00 0.00 51 1011.2
20260503203556 18 257 8.0 19.3 0.00 0.00 0.00 51 1011.2
20260503203100 18 285 11.3 19.3 0.00 0.00 0.00 50 1011.2
20260503202556 18 257 11.3 20.9 0.00 0.00 0.00 50 1011.2
20260503202057 18 283 9.7 20.9 0.00 0.00 0.00 49 1011.3
20260503201558 18 272 11.3 24.1 0.00 0.00 0.00 49 1011.2
20260503201059 18 293 11.3 24.1 0.00 0.00 0.00 47 1011.2
20260503200557 18 304 9.7 19.3 0.00 0.00 0.00 46 1011.2
20260503200058 18 269 8.0 16.1 0.00 0.00 0.00 45 1011.1
20260503195600 19 274 6.4 14.5 0.00 0.00 0.00 43 1011.0
20260503195057 19 264 6.4 16.1 0.00 0.00 0.00 43 1011.0
20260503194603 19 267 8.0 16.1 0.00 0.00 0.00 42 1010.9
20260503194057 19 238 6.4 16.1 0.00 0.00 0.00 41 1010.9
20260503193557 19 261 6.4 16.1 0.00 0.00 0.00 41 1010.8
20260503193056 19 251 6.4 12.9 0.00 0.00 0.00 41 1010.7
20260503192556 19 240 4.8 14.5 0.00 0.00 0.00 41 1010.7
20260503192057 20 240 6.4 14.5 0.00 0.00 0.00 40 1010.7
20260503191603 20 228 6.4 16.1 0.00 0.00 0.00 40 1010.6
20260503191058 20 244 8.0 16.1 0.00 0.00 0.00 39 1010.5
20260503190559 20 246 6.4 12.9 0.00 0.00 0.00 39 1010.5
20260503190057 20 238 4.8 19.3 0.00 0.00 0.00 38 1010.4
20260503185558 20 244 6.4 20.9 0.00 0.00 0.00 38 1010.4
20260503185100 20 223 8.0 20.9 0.00 0.00 0.00 37 1010.3
20260503184559 20 232 9.7 20.9 0.00 0.00 0.00 38 1010.3
20260503184057 20 237 8.0 19.3 0.00 0.00 0.00 37 1010.3
20260503183558 20 278 9.7 22.5 0.00 0.00 0.00 37 1010.2
20260503183105 21 181 11.3 22.5 0.00 0.00 0.00 36 1010.2
20260503182556 21 245 8.0 27.4 0.00 0.00 0.00 37 1010.2
20260503182057 21 244 14.5 27.4 0.00 0.00 0.00 35 1010.1
20260503181605 21 238 11.3 27.4 0.00 0.00 0.00 36 1010.1
20260503181056 21 210 9.7 27.4 0.00 0.00 0.00 36 1010.0
20260503180555 21 238 11.3 27.4 0.00 0.00 0.00 35 1010.0
20260503180106 21 260 12.9 30.6 0.00 0.00 0.00 36 1010.0
20260503175556 21 232 11.3 30.6 0.00 0.00 0.00 36 1009.9
20260503175056 21 244 14.5 25.7 0.00 0.00 0.00 37 1009.9
20260503174604 20 219 9.7 22.5 0.00 0.00 0.00 39 1009.8
20260503174056 21 209 8.0 16.1 0.00 0.00 0.00 41 1009.8
20260503173557 21 348 0.0 8.0 0.00 0.00 0.00 43 1009.8
20260503173111 21 190 1.6 8.0 0.00 0.00 0.00 42 1009.8
20260503172558 21 190 3.2 8.0 0.00 0.00 0.00 42 1009.8
20260503172057 21 212 1.6 9.7 0.00 0.00 0.00 42 1009.8
20260503171600 21 217 4.8 11.3 0.00 0.00 0.00 42 1009.9
20260503171056 21 203 3.2 12.9 0.00 0.00 0.00 42 1010.0
20260503170557 21 246 6.4 14.5 0.00 0.00 0.00 41 1010.0
20260503150559 21 175 4.8 12.9 0.00 0.00 0.00 38 1010.4
20260503140108 22 198 4.8 9.7 0.00 0.00 0.00 40 1010.8
20260503131058 21 229 3.2 12.9 0.00 0.00 0.00 40 1011.3
20260503130559 21 205 4.8 14.5 0.00 0.00 0.00 39 1011.4
20260503110556 22 189 9.7 25.7 0.00 0.00 0.00 40 1012.1
20260503110108 22 213 11.3 24.1 0.00 0.00 0.00 36 1012.2
20260503081556 22 0 3.2 12.9 0.00 0.00 0.00 49 1012.7
20260503081056 21 202 4.8 14.5 0.00 0.00 0.00 48 1012.6
20260503080556 21 208 4.8 14.5 0.00 0.00 0.00 48 1012.6
20260503072556 19 0 1.6 8.0 0.00 0.00 0.00 63 1012.6
20260503072057 18 0 0.0 8.0 0.00 0.00 0.00 64 1012.6
20260503071612 18 0 1.6 8.0 0.00 0.00 0.00 64 1012.6
20260503071056 18 0 0.0 4.8 0.00 0.00 0.00 66 1012.7
20260503070601 17 0 0.0 1.6 0.00 0.00 0.00 67 1012.6
20260503060125 14 0 0.0 8.0 0.00 0.00 0.00 77 1012.6
20260503055057 13 169 4.8 12.9 0.00 0.00 0.00 77 1012.5
20260503054601 13 171 4.8 14.5 0.00 0.00 0.00 78 1012.5
20260503054058 13 151 4.8 14.5 0.00 0.00 0.00 78 1012.5
20260503053558 13 179 4.8 11.3 0.00 0.00 0.00 79 1012.5
20260503053058 12 360 4.8 9.7 0.00 0.00 0.00 79 1012.6
20260503052558 12 360 1.6 14.5 0.00 0.00 0.00 80 1012.6
20260503052058 12 360 3.2 14.5 0.00 0.00 0.00 81 1012.6
20260503051555 12 360 3.2 12.9 0.00 0.00 0.00 82 1012.6
20260503051101 12 360 4.8 9.7 0.00 0.00 0.00 83 1012.7
20260503050600 11 360 3.2 12.9 0.00 0.00 0.00 83 1012.7
20260503050057 11 360 3.2 12.9 0.00 0.00 0.00 84 1012.7